Location: Krachtighuizen
(52.2391°N, 5.6237°E)
Time: 15:38:02
(UTC+00:00)

Daily predictions for brighter satellites

Satellite Brightness Start Highest point End
(mag) Time Altitude Azimuth Time Altitude Azimuth Time Altitude Azimuth
Okean 1 Rocket 3.3 19:50:06 10° S 19:54:20 50° E 19:58:37 10° NNE
Meteor 2-3 Rocket 3.8 19:50:30 10° NNW 19:56:09 85° E 20:01:47 10° SSE
Cosmos 2084 3.4 19:53:47 10° SW 19:57:56 90° NW 20:02:06 10° NE
SPOT 3 Rocket 4.4 19:54:39 10° SE 19:59:19 37° ENE 20:04:01 10° N
CZ-4 R/B 2.6 19:56:56 10° SSW 20:00:20 37° W 20:03:45 10° NNW
Cosmos 1850 Rocket 4.0 19:55:24 10° NNW 20:00:35 72° ENE 20:05:45 10° SSE
CZ-4B R/B 3.8 19:58:52 10° ESE 20:01:38 24° ENE 20:04:28 10° N
Cosmos 1782 4.0 19:59:38 10° SE 20:02:17 20° E 20:04:58 10° NE
ASTEX 1 4.1 20:01:50 10° S 20:06:42 57° W 20:11:37 10° NNW
Cosmos 2084 Rocket 4.2 20:06:06 10° NW 20:10:07 43° NNE 20:14:10 10° ESE
Cosmos 2056 Rocket 3.9 20:04:51 10° SSW 20:10:15 74° WNW 20:15:39 10° NNE
CZ-4B R/B 3.6 20:04:39 10° S 20:10:18 69° WSW 20:15:56 10° NNW
Cosmos 1833 Rocket 2.7 20:05:38 10° SSW 20:11:15 86° ESE 20:16:54 10° NNE
Cosmos 1110 Rocket 4.2 20:06:32 10° S 20:11:41 55° ESE 20:16:52 10° NNE
Cosmos 1802 Rocket 4.2 20:06:08 10° SSE 20:12:08 55° E 20:18:07 10° NNE
Cosmos 1624 Rocket 4.3 20:08:02 10° SSW 20:13:11 72° WNW 20:18:24 10° NNE
Terra 2.5 20:09:54 10° S 20:14:30 55° W 20:19:08 10° NNW
Gbstr 26 Del rocket 3.4 20:09:32 10° W 20:14:46 61° SSW 20:18:53 11° ESE
Cosmos 2360 Rocket 4.1 20:11:48 10° NNW 20:15:58 20° NNE 20:20:08 10° E
Sich 1 Rocket 3.5 20:12:49 10° S 20:17:09 73° E 20:21:32 10° NNE
SJ 16-02 4.1 20:17:24 10° WNW 20:19:18 13° W 20:21:11 10° WSW
YAOGAN 11 4.3 20:16:21 10° NNE 20:20:40 52° E 20:25:01 10° S
CZ-2C R/B 3.6 20:23:39 13° ESE 20:25:25 21° ENE 20:27:39 10° NNE
Cosmos 1743 2.0 20:22:52 10° N 20:25:53 70° ENE 20:28:34 12° SSE
Meteor 1-27 4.3 20:26:05 10° S 20:31:38 58° E 20:37:08 10° NNE
Cosmos 44 Rocket 3.6 20:26:59 10° SSW 20:31:50 47° ESE 20:36:48 10° NE
ISS -2.4 20:30:09 10° SSW 20:32:37 19° SE 20:35:05 10° E
Cosmos 1459 Rocket 4.1 20:26:53 10° S 20:33:09 86° WNW 20:39:21 10° N
Cosmos 2219 Rocket 4.3 20:29:30 10° NNW 20:33:27 19° NNE 20:37:23 10° ENE
Meteor 2-12 Rocket 4.5 20:28:57 10° N 20:35:02 71° ENE 20:40:49 11° SSE
Ariane Rocket 3.3 20:32:21 13° SE 20:36:43 56° ENE 20:41:40 10° N
Cosmos 2100 Rocket 4.2 20:30:31 10° SSW 20:36:44 76° WNW 20:43:05 10° N
ATLAS 2AS CENTAUR R/B 3.2 20:33:39 10° WSW 20:40:33 67° NW 20:47:22 10° NE
Cosmos 2369 3.8 20:35:58 10° NNW 20:41:42 70° ENE 20:46:24 16° SE
SL-4 R/B 3.8 20:39:39 10° W 20:42:18 18° SW 20:44:44 11° S
BREEZE-M DEB (TANK) 4.3 20:39:30 10° W 20:42:23 30° SSW 20:47:10 14° SE
Spot 2 Rocket 4.0 20:37:48 10° S 20:42:44 58° W 20:47:43 10° NNW
Cosmos 2322 Rocket 3.7 20:39:05 10° NNW 20:43:54 27° NE 20:48:40 10° E
Cosmos 2082 Rocket 2.7 20:42:06 10° S 20:47:24 40° ESE 20:52:42 10° NE
Okean 2 Rocket 4.1 20:43:11 10° SSW 20:47:31 48° WNW 20:51:53 10° N
USA 305 2.5 20:44:21 10° WNW 20:48:28 82° SSW 20:51:08 18° ESE
Cosmos 1437 Rocket 4.3 20:47:59 15° ESE 20:48:56 16° E 20:51:13 10° NE
Cosmos 2151 3.8 20:46:36 10° N 20:50:24 34° ENE 20:52:53 18° SE
Cosmos 1626 Rocket 3.8 20:52:56 10° N 20:57:13 54° ENE 21:00:04 20° SSE
Cosmos 2233 Rocket 4.0 20:52:03 10° S 20:58:15 74° E 21:04:25 10° NNE
Cosmos 1607 4.1 20:52:27 10° SSW 20:58:19 49° ESE 21:04:19 10° NE
Cosmos 2228 2.8 20:55:35 12° S 20:59:27 74° E 21:03:34 10° NNE
USA 186 3.3 20:58:33 10° SSW 21:00:48 25° W 21:03:07 10° NW
Timation 1 Rocket 4.5 20:55:43 10° SW 21:01:45 82° WNW 21:07:48 10° NNE
Okean O Rocket 2.8 20:58:06 10° SSW 21:02:05 37° W 21:06:06 10° NNW
Tsikada Rocket 4.0 20:57:11 10° NNW 21:03:24 83° W 21:08:51 14° S
Cosmos 1697 Rocket 4.5 21:01:30 10° NW 21:05:58 25° WSW 21:10:24 10° SSW
CZ-4C R/B 1.7 21:04:41 10° SW 21:09:00 85° SE 21:14:39 10° NE
Cosmos 1725 Rocket 4.3 21:03:08 10° SSW 21:09:24 70° WNW 21:15:39 10° N
Cosmos 1992 Rocket 4.4 21:05:58 17° SSE 21:09:35 41° ESE 21:14:28 10° NE
Cosmos 1452 Rocket 3.6 21:04:46 10° SSW 21:10:00 81° WNW 21:15:16 10° NNE
Meteor 1-20 Rocket 4.3 21:04:33 10° N 21:10:03 63° ENE 21:13:53 21° SSE
COSMOS 2406 4.0 21:07:29 19° SSE 21:10:36 31° ESE 21:15:35 10° NE
SL-16 R/B 2.6 21:05:20 10° NNW 21:10:56 54° NE 21:14:58 19° SE
Helios 1A 4.4 21:09:20 10° NE 21:12:13 19° E 21:13:02 18° ESE
ATLAS 3B R/B 4.0 21:07:49 10° NW 21:14:39 35° WSW 21:20:47 11° S
Okean-O 4.2 21:11:13 10° SSW 21:15:04 30° W 21:18:57 10° NNW
Cosmos 1805 4.2 21:14:10 10° N 21:17:00 26° ENE 21:18:02 22° ESE
CZ-4B R/B 3.7 21:19:07 17° S 21:22:39 59° WSW 21:27:25 10° NNW
Cosmos 2333 Rocket 2.5 21:18:13 10° NNW 21:23:51 59° NE 21:27:39 21° SE
Cosmos 1455 Rocket 4.2 21:21:44 10° SW 21:25:56 42° WNW 21:30:09 10° N
Cosmos 1302 Rocket 3.9 21:22:30 10° SSW 21:27:41 89° WNW 21:32:54 10° NNE
Cosmos 2098 Rocket 4.1 21:25:32 24° SE 21:27:50 36° E 21:32:03 10° NNE
Meteor 1-25 Rocket 4.3 21:23:23 10° N 21:29:06 68° ENE 21:32:32 24° SSE
Cosmos 1980 Rocket 3.5 21:29:19 10° NW 21:34:18 32° WSW 21:38:33 13° SSW
CZ-4B R/B 4.1 21:33:11 15° SSW 21:35:19 28° W 21:38:18 10° NW
Cosmos 2061 Rocket 4.2 21:30:03 10° SSW 21:36:15 74° WNW 21:42:33 10° N
Cosmos 1782 4.0 21:33:28 10° SW 21:36:42 34° WNW 21:39:58 10° N
Cosmos 1544 Rocket 3.4 21:35:33 24° S 21:38:10 81° E 21:42:31 10° NNE
Cosmos 724 4.3 21:32:56 10° SW 21:38:59 86° NW 21:44:56 10° NE
NOSS 3-3 (A) 3.7 21:34:44 10° SSW 21:39:50 57° SE 21:45:58 10° NE
DNEPR-1 R/B 4.4 21:39:52 10° NW 21:45:04 68° NE 21:49:21 21° ESE
Cosmos 1933 3.1 21:44:19 34° S 21:45:50 73° E 21:49:38 10° NNE
Cosmos 2084 Rocket 4.1 21:44:54 10° WNW 21:48:51 40° SW 21:50:19 30° S
Okean 1 4.2 21:49:59 26° E 21:50:18 27° E 21:53:22 10° NNE
Cosmos 1758 Rocket 4.1 21:47:00 10° NNW 21:51:15 51° W 21:53:41 23° SSW
Helios 1B rocket 2.5 21:51:51 36° ESE 21:52:49 48° ENE 21:56:14 10° N
CZ-2C R/B 3.9 21:55:17 18° WSW 21:56:09 21° W 21:58:23 10° NW
Cosmos 1464 Rocket 4.0 21:53:23 26° SSE 21:56:50 63° E 22:02:55 10° NNE
Cosmos 1513 Rocket 4.5 21:56:21 21° S 22:00:44 90° WSW 22:06:57 10° N
Cosmos 2360 Rocket 2.4 21:55:24 10° NNW 22:01:05 65° NE 22:04:14 27° SE
Meteor 2-10 4.2 21:58:19 10° NNW 22:04:02 81° ENE 22:06:57 31° SSE
Cosmos 1825 Rocket 3.5 22:03:20 10° N 22:07:41 75° ENE 22:09:11 40° SSE
NOSS 3-3 (C) 3.7 22:02:52 12° SSW 22:07:43 71° SE 22:14:07 10° NE
ALOS 2 3.7 22:06:32 24° ESE 22:08:22 35° ENE 22:12:21 10° N
Geosat 3.9 22:03:22 10° NNE 22:08:25 90° N 22:12:24 16° SSW
ARIANE 5 R/B 3.4 22:07:11 28° ESE 22:08:58 42° ENE 22:13:10 10° N
ISS -3.3 22:05:41 10° WSW 22:08:14 45° SW 22:08:14 45° SW
Cosmos 1953 Rocket 4.0 22:05:04 10° N 22:09:20 48° ENE 22:10:47 34° SE
Cosmos 1072 Rocket 4.5 22:08:18 26° S 22:12:05 84° E 22:18:26 10° NNE
Cosmos 2058 Rocket 4.3 22:11:46 24° ESE 22:12:35 25° E 22:16:10 10° NNE
USA 305 3.8 22:10:09 10° W 22:13:09 25° SW 22:13:09 25° SW
BREEZE-M R/B 4.2 22:07:20 10° W 22:16:06 80° S 22:21:45 10° E
Cosmos 1602 Rocket 4.2 22:12:46 10° NNW 22:16:55 48° W 22:18:42 29° SSW
Cosmos 1092 Rocket 4.3 22:11:42 10° N 22:17:46 56° ENE 22:20:51 29° SE
Cosmos 2219 Rocket 2.6 22:13:00 10° NNW 22:18:37 58° NE 22:21:48 26° SE
CZ-2C R/B 4.3 22:15:00 10° NNE 22:19:09 39° E 22:20:05 34° SE
DEBRIS 4.2 22:15:19 10° W 22:19:24 73° S 22:35:00 10° E
NOSS 3-4 (A) 3.7 22:14:43 10° NW 22:21:17 87° SW 22:26:01 26° SE
NOSS 3-4 (C) 3.7 22:15:19 10° NW 22:21:55 87° SW 22:26:40 26° SE
Cosmos 1437 Rocket 3.4 22:21:47 27° SW 22:23:16 44° WNW 22:26:44 10° N
Cosmos 540 Rocket 4.3 22:23:21 29° SE 22:24:24 32° ESE 22:28:56 10° NE
Cosmos 1461 3.1 22:26:32 41° ESE 22:26:32 41° ESE 22:29:39 10° NE
Cosmos 2151 4.5 22:23:33 10° NNW 22:27:04 27° W 22:28:56 19° SW
Cosmos 2322 Rocket 2.1 22:22:53 10° NNW 22:28:34 81° WSW 22:31:03 35° SSE
Cosmos 2034 Rocket 4.0 22:27:37 31° S 22:30:51 74° E 22:37:13 10° NNE
Cosmos 2082 Rocket 3.2 22:25:56 10° WSW 22:31:27 46° NW 22:36:57 10° NNE
ATLAS 2AS CENTAUR R/B 4.4 22:26:23 10° WNW 22:32:35 34° NNW 22:38:43 10° NE
Cosmos 220 Rocket 3.7 22:32:36 48° SSW 22:33:39 81° ESE 22:37:46 10° NNE
Cosmos 1536 3.1 22:33:59 10° N 22:37:33 46° ENE 22:38:06 42° ESE
Cosmos 1707 3.4 22:38:21 29° ENE 22:38:21 29° ENE 22:40:18 10° NNE
USA 234 3.4 22:32:15 10° ENE 22:38:38 52° SE 22:42:48 22° SSW
ACS3 Solar Sail 3.9 22:39:12 10° ENE 22:41:01 11° ENE 22:42:50 10° E
COSMOS 2428 3.9 22:36:43 10° NNW 22:42:00 37° NE 22:46:33 13° ESE
Cosmos 2237 Rocket 4.3 22:40:36 10° NNW 22:45:07 23° NE 22:49:37 10° E
Okean 1-7 Rocket 4.4 22:41:26 10° NNW 22:45:37 41° W 22:47:08 30° SW
Helios 1A 3.5 22:43:21 10° N 22:47:10 48° WNW 22:48:44 30° SW
Cosmos 1763 Rocket 3.7 22:45:39 39° SSE 22:47:11 53° ESE 22:52:20 10° NNE
Cosmos 1503 Rocket 4.0 22:42:04 10° NNW 22:47:16 70° WSW 22:49:02 41° S
Cosmos 1777 Rocket 4.3 22:42:22 10° NNW 22:47:30 56° WSW 22:49:16 37° SSW
Cosmos 2278 4.2 22:42:06 10° NW 22:47:33 46° WSW 22:49:38 32° SSW
Cosmos-2242 3.0 22:47:28 51° SE 22:48:12 61° E 22:52:17 10° NNE
CZ-2C R/B 4.3 22:44:58 10° NNE 22:50:04 33° E 22:51:56 27° SE
Cosmos 990 Rocket 3.9 22:45:27 10° NNW 22:50:39 89° WSW 22:52:30 41° SSE
Cosmos 1606 Rocket 4.1 22:52:44 31° SW 22:54:28 52° WNW 22:58:44 10° N
ARGOS Delta rocket 4.2 22:49:38 10° NNE 22:54:32 56° E 22:56:07 40° SSE
COSMOS 2406 3.7 22:49:26 13° SW 22:54:36 58° NW 23:00:18 10° NNE
SL-16 R/B 3.2 22:49:46 10° NW 22:54:48 33° WSW 22:56:47 26° SW
USA 290 2.7 22:56:48 51° ENE 22:56:48 51° ENE 22:59:24 10° NNE
Cosmos 1354 Rocket 3.9 22:52:13 10° NNW 22:57:31 81° WSW 22:59:19 42° SSE
CZ-4C R/B 3.8 22:53:24 10° W 22:57:53 34° NNW 23:03:34 10° NE
Cosmos 1634 Rocket 4.0 22:57:50 36° S 23:00:28 71° E 23:06:38 10° NNE
Cosmos 1766 2.8 22:58:10 10° NNW 23:01:17 72° WNW 23:01:17 72° WNW
Cosmos 1470 3.0 23:00:54 10° N 23:04:06 42° ENE 23:04:12 42° E
Cosmos 2279 Rocket 4.3 23:01:48 34° SSE 23:04:22 55° E 23:10:28 10° NNE
SeaSat 1 3.0 23:03:53 25° ESE 23:06:33 54° NE 23:11:20 10° NNW
Cosmos 1726 Rocket 4.0 23:06:20 36° SW 23:07:34 49° WNW 23:11:31 10° N
Cosmos 2333 Rocket 3.3 23:02:57 10° NW 23:07:50 30° WSW 23:09:39 25° SW
Cosmos 2221 3.4 23:09:57 32° ESE 23:10:32 33° E 23:14:19 10° NNE
Cosmos 1076 Rocket 4.5 23:06:40 10° NNW 23:10:36 36° W 23:11:38 31° WSW
Meteor 2-2 Rocket 4.2 23:10:21 39° S 23:12:36 85° E 23:18:22 10° NNE
Cosmos 1842 3.4 23:13:51 45° ENE 23:13:51 45° ENE 23:16:33 10° NNE
BREEZE-M DEB (TANK) 3.5 23:10:05 10° W 23:17:39 58° S 23:22:33 10° ESE
CZ-2C R/B 2.9 23:16:22 32° SE 23:18:43 60° ENE 23:23:52 10° N
Cosmos 1833 4.1 23:17:41 39° SSW 23:19:53 76° ESE 23:25:32 10° NNE
NOSS 0 Rocket 4.5 23:17:17 10° NNW 23:23:22 54° NE 23:28:04 17° ESE
Spot 4 4.4 23:23:21 36° SW 23:24:37 45° W 23:29:13 10° NNW
KORONAS-FOTON 3.4 23:25:15 83° WNW 23:25:15 83° WNW 23:28:38 10° N
Helios 1B rocket 4.2 23:25:48 16° W 23:26:04 16° W 23:28:20 10° NW
SAR-Lupe-2 4.0 23:26:37 45° W 23:26:37 45° W 23:29:41 10° NNW
Cosmos 1975 2.6 23:24:15 10° N 23:27:55 66° ENE 23:28:17 61° ESE
Aureole 1 Rocket 3.7 23:24:24 10° NNW 23:29:38 73° WSW 23:32:03 38° S
Cosmos 2266 Rocket 4.1 23:25:35 10° N 23:31:36 63° ENE 23:34:28 31° SE
Cosmos 2322 3.8 23:26:39 10° NNW 23:32:24 76° ENE 23:35:16 30° SE
Cosmos 1812 Rocket 4.1 23:34:01 39° SE 23:34:54 45° E 23:39:08 10° NNE
Cosmos 2297 Rocket 3.9 23:33:58 17° ESE 23:35:33 19° E 23:39:22 10° ENE
Cosmos 44 3.4 23:30:30 10° NW 23:35:57 84° SW 23:38:07 37° SE
Cosmos 1271 Rocket 2.3 23:38:07 74° E 23:38:07 74° E 23:41:29 10° NNE
Cosmos 372 Rocket 3.9 23:36:53 10° NNW 23:42:01 75° WSW 23:43:34 45° S
RESURS DK-1 2.6 23:39:04 10° NNW 23:43:01 61° NE 23:44:13 40° ESE
Cosmos 1937 Rocket 3.6 23:38:10 10° NNW 23:43:21 68° ENE 23:45:41 32° SE
Cosmos 2360 Rocket 3.4 23:39:57 10° NW 23:44:38 27° WSW 23:45:58 24° SW
ALOS 2 3.6 23:43:55 30° WSW 23:44:42 33° W 23:48:42 10° NNW
ARIANE 5 R/B 3.9 23:44:33 26° WSW 23:45:24 27° W 23:49:14 10° NW
ISS-0.423:50:53E23:50:53E23:41:23W
Meteor 1-11 Rocket 3.8 23:41:19 10° N 23:47:06 76° ENE 23:49:32 36° SSE
GP-B 3.0 23:43:50 10° N 23:48:14 82° E 23:49:14 53° S
Cosmos 2058 Rocket 3.9 23:48:53 31° WSW 23:50:16 40° WNW 23:54:23 10° N
Cosmos 468 Rocket 3.9 23:51:08 41° SSW 23:53:01 89° ESE 23:58:19 10° NNE
